sat.trackr.live / text

‹ back to catalog

SAOCOM 1A

NORAD 43641 · 2018-076A

PAYLOAD ACTIVE UNKNOWN

§ Identity

Operator
Country
ARGN
Launch date
2018-10-08
Launch site
AFWTR
Launch vehicle
Mass (kg)
RCS (m²)

External: N2YO · Heavens-Above · Gunter

§ Orbital elements

Epoch: 2026-09-20T04:34:54.858144Z

Period
97.16 min
Inclination
97.8898°
Eccentricity
0.0001434
Mean motion
14.82145687 rev/d
Perigee alt
621.6 km
Apogee alt
623.6 km
Semi-major
7,000.7 km
B*
-3.4023e-5
RAAN
88.5760°
Arg perigee
82.8051°
Mean anomaly
277.3325°
Rev number
43,017

§ Raw data

SAOCOM 1A1 43641U 18076A   26263.19091271 -.00000323  00000+0 -34023-4 0  99942 43641  97.8898  88.5760 0001434  82.8051 277.3325 14.82145687430179

JSON: /api/v1/satellites/43641 · /tle

For live sub-satellite position, see the globe view (requires WebGL).

§ Visibility from observer

Set your observer location to see the next 7 days of passes ≥ 10°. The values pass through the URL so the page stays shareable.

No JS? Fill the form by hand. The geolocation button needs JavaScript.

§ Radio — SatNOGS DB

ModeDescriptionDownlinkUplink
BPSK S-band telemetry 2.256 GHz

1 transmitter · refreshed weekly from db.satnogs.org